Address 0x96fa0bc94c9b12c82ca55096b66cd56a7bf4ea6f

 
 
Txn Hash Method
Block
From
To
Value [Txn Fee]
0x6cab20c5ad04085bf18cbf6c20d1fe19b430d5e4f733d1c56fb12c5f1864c54dJoin Raid104102632021-08-28 2:37:3326 days 11 hrs ago0x96fa0bc94c9b12c82ca55096b66cd56a7bf4ea6fOUT 0x1067d34d7bebe2be81657e8a2e3cfebb0161f96b0 BNB0.00130925
0x83accc22d7a14086a49b3250cbe51db08b307e23253420facb53c9334d5fea0fTransfer99453822021-08-11 19:32:3942 days 19 hrs ago0x96fa0bc94c9b12c82ca55096b66cd56a7bf4ea6fOUT0x63d4c980bfe3ce0e6f7dc7c9b8a8ca2d2b5906390.0212 BNB0.000105
0x40b3c745aac171b834f061f16c5cd5af99c2afb2ba6883f056f1efe9d88579f0Transfer99453652021-08-11 19:31:4242 days 19 hrs ago0x96fa0bc94c9b12c82ca55096b66cd56a7bf4ea6fOUT0x642ffa700c6def196ced59258660aa1e126ec0e10.0212 BNB0.000105
0x8cba34af9e08116f4b15613d872a6d482e405e48606692db14440ce00157ec1eTransfer99453542021-08-11 19:31:0342 days 19 hrs ago0x96fa0bc94c9b12c82ca55096b66cd56a7bf4ea6fOUT0xf333c7f90abc03985ec5a792fe2181cfa32a837d0.0212 BNB0.000105
0xe8d673289930b35eab91570928fe0f4d847204e616e34184081715330c52fd43Transfer99453482021-08-11 19:30:3942 days 19 hrs ago0x96fa0bc94c9b12c82ca55096b66cd56a7bf4ea6fOUT0x96b41ef9a6dce4468c9ed7c772021e0d6b9b5fe70.0212 BNB0.000105
0x0060e1098fc93e35e8f0cd44753bcaf8946f03807ee067fd52b51e7fcc29d75bTransfer99453032021-08-11 19:27:5942 days 19 hrs ago0x47ffe9b1c270410ccf6a7d5861e666e42c1f25f2 IN 0x96fa0bc94c9b12c82ca55096b66cd56a7bf4ea6f0.11 BNB0.000105
0xbb154e2a09df2e8268c523b4c9d965685945d851b195160465c902b67c521adeTransfer99452122021-08-11 19:22:2042 days 19 hrs ago0x96fa0bc94c9b12c82ca55096b66cd56a7bf4ea6fOUT CryptoBlades: SKILL Token0 BNB0.00012108
0xa2f409cc6bcd43ba1ba9f25ca01c6122614507f3a4f5db8d4ba6344dfe16fd2bStake Unclaimed ...99451232021-08-11 19:16:4042 days 19 hrs ago0x96fa0bc94c9b12c82ca55096b66cd56a7bf4ea6fOUT CryptoBlades: Gameplay0 BNB0.00067112
0xd00adc8f5e65661e72537586c66160ab6f72aefbe0e0f72204e9c2dfbf374a40Fight99451172021-08-11 19:16:2142 days 19 hrs ago0x96fa0bc94c9b12c82ca55096b66cd56a7bf4ea6fOUT CryptoBlades: Gameplay0 BNB0.00084571
0x4ae6440db68ae38d1625e99fb7329e64eeb8e30dd8ac6a1ccf1c223702e44ee9Get Reward99447872021-08-11 18:56:2642 days 19 hrs ago0x96fa0bc94c9b12c82ca55096b66cd56a7bf4ea6fOUT 0xd6b2d8f59bf30cfe7009fb4fc00a7b13ca836a2c0 BNB0.000315895
0x6bb4c5ef5f9930188cb9cd75af79e75c39a72ed1959127400adf50da455a10b6Withdraw99447692021-08-11 18:55:2842 days 19 hrs ago0x96fa0bc94c9b12c82ca55096b66cd56a7bf4ea6fOUT 0xd6b2d8f59bf30cfe7009fb4fc00a7b13ca836a2c0 BNB0.000297995
0xd64160e71babe9f8cd570504696611e3156bff33ef1bef05db810f4a7d1d0fd7Stake Unclaimed ...99430982021-08-11 17:10:4142 days 21 hrs ago0x96fa0bc94c9b12c82ca55096b66cd56a7bf4ea6fOUT CryptoBlades: Gameplay0 BNB0.00061287
0xb274a062f74a815262605a681ce4483f9b8817cdcaf2771cdcc09349a3d4d7bcFight99430882021-08-11 17:10:0342 days 21 hrs ago0x96fa0bc94c9b12c82ca55096b66cd56a7bf4ea6fOUT CryptoBlades: Gameplay0 BNB0.000707805
0x9f0d7abcead9d98c17fe0cc7914b59fa8a04fe7107810f628c34c635ec33e6b9Fight99430712021-08-11 17:09:0342 days 21 hrs ago0x96fa0bc94c9b12c82ca55096b66cd56a7bf4ea6fOUT CryptoBlades: Gameplay0 BNB0.00074974
0x418e47889325044a8179bb4d5b22330249108a5530bda4a7cb2ec19be0c3006fFight99417772021-08-11 16:03:4942 days 22 hrs ago0x96fa0bc94c9b12c82ca55096b66cd56a7bf4ea6fOUT CryptoBlades: Gameplay0 BNB0.00074472
0xf898e56f28003101bc7353f3de094675da09e0a143429e5da8860b4026b0a1feFight99417552021-08-11 16:02:4342 days 22 hrs ago0x96fa0bc94c9b12c82ca55096b66cd56a7bf4ea6fOUT CryptoBlades: Gameplay0 BNB0.00074771
0x09ab321db5d724282a13abbc0feb66290c2ad18ea5f51ebb4c3ea87d68ebd28cFight99280302021-08-11 4:27:2543 days 10 hrs ago0x96fa0bc94c9b12c82ca55096b66cd56a7bf4ea6fOUT CryptoBlades: Gameplay0 BNB0.000749445
0x0afc00ae64f817888d39027a9bbc1c1230101df62bcc8e95dc79c6066ade5160Fight99280132021-08-11 4:26:3443 days 10 hrs ago0x96fa0bc94c9b12c82ca55096b66cd56a7bf4ea6fOUT CryptoBlades: Gameplay0 BNB0.000746795
0xeb284d581ca17439772a75425b1c6b453f08e89a9828f92a8a2d02344a7d2896Fight99256062021-08-11 2:24:2043 days 12 hrs ago0x96fa0bc94c9b12c82ca55096b66cd56a7bf4ea6fOUT CryptoBlades: Gameplay0 BNB0.00075005
0xe67e023ca47e15d1bf93bea9221eb5b4eed7b288cd0b56af98f18081d8d14037Fight99255872021-08-11 2:23:2343 days 12 hrs ago0x96fa0bc94c9b12c82ca55096b66cd56a7bf4ea6fOUT CryptoBlades: Gameplay0 BNB0.000751085
0x92c2def47666d5ca86e8fed554cf3605bcd91da3f12fb2dc02d23ee96954b3e8Fight99041142021-08-10 8:02:5544 days 6 hrs ago0x96fa0bc94c9b12c82ca55096b66cd56a7bf4ea6fOUT CryptoBlades: Gameplay0 BNB0.0007501
0xc016a8b0b7cf29804bc2df4d04174cbb5937e5b7528be64588707d0af48cbb0dFight99041002021-08-10 8:02:1344 days 6 hrs ago0x96fa0bc94c9b12c82ca55096b66cd56a7bf4ea6fOUT CryptoBlades: Gameplay0 BNB0.00074503
0x947cf33c67a471d0ef7e30e9f18aa012cf977c050a79ddfa02eea105eb285a3dFight99038532021-08-10 7:49:5244 days 6 hrs ago0x96fa0bc94c9b12c82ca55096b66cd56a7bf4ea6fOUT CryptoBlades: Gameplay0 BNB0.00070877
0xc46d5cff9e4daecf0041b2ea5108f6817dc51c977613353c8d0081c3ec044c89Fight99020802021-08-10 6:17:0944 days 8 hrs ago0x96fa0bc94c9b12c82ca55096b66cd56a7bf4ea6fOUT CryptoBlades: Gameplay0 BNB0.000745385
0xfc0fa3735b8cb6d456a7a6908cbd8001be31e778f4c2dfcf0936d801f8289ce9Fight98833282021-08-09 14:36:1844 days 23 hrs ago0x96fa0bc94c9b12c82ca55096b66cd56a7bf4ea6fOUT CryptoBlades: Gameplay0 BNB0.00070395
[ Download CSV Export 
Latest 3 internal transactions
Parent Txn Hash Block From To Value
0x10d989ed57e0d3207d656d33ad86ddb76016b8a329c7c8e4d99fd8d3a786d6a798255742021-08-07 13:11:3747 days 1 hr ago PancakeSwap: Router v20x96fa0bc94c9b12c82ca55096b66cd56a7bf4ea6f1.055739092447303278 BNB
0x36cbc4fcbf999fa35fb8c99679f67e364a521e342589ad8a62b9fea77e6484b995525452021-07-28 17:09:5856 days 21 hrs ago PancakeSwap: Router v20x96fa0bc94c9b12c82ca55096b66cd56a7bf4ea6f0.322740184615641989 BNB
0x64e5de53e7131b592b6ce50e922ba9e9df2d81b732a99d26c90b3bb8568f89e393728692021-07-22 6:54:2563 days 7 hrs ago PancakeSwap: Router v20x96fa0bc94c9b12c82ca55096b66cd56a7bf4ea6f0.299298684225905867 BNB
[ Download CSV Export 
Loading

Contract Name:
0 BNB

Compiler Version
0

Optimization Enabled:
0 BNB

Other Settings:
-NA-
Block Transaction Gas Used Reward
Age Block Fee Address BC Fee Address Voting Power Jailed Incoming
Block Uncle Number Difficulty Gas Used Reward
Loading
Loading
Make sure to use the "Vote Down" button for any spammy posts, and the "Vote Up" for interesting conversations.